Weather History for Chongqing, CQ

Change the Weather History Date:

Friday, July 26, 2013

  Actual Average Record
Temperature  
Mean Temperature 94 °F -  
Max Temperature 103 °F - - ()
Min Temperature 86 °F - - ()
Cooling Degree Days 30    
Growing Degree Days 44 (Base 50)    
Moisture  
Dew Point 68 °F    
Average Humidity 42    
Maximum Humidity 62    
Minimum Humidity 21    
Precipitation  
Precipitation 0.00 in - - ()
Sea Level Pressure  
Sea Level Pressure 29.51 in    
Wind  
Wind Speed 4 mph ()    
Max Wind Speed 9 mph    
Max Gust Speed -    
Visibility 8.6 miles    
Events      
T = Trace of Precipitation, MM = Missing Value Source: Averaged Metar Reports

Daily Weather History Graph

Daily Weather History Graph

Search for Another Location

Airport:

Trip Planner

Search our weather history database for the weather conditions in past years. The results will help you decide how hot, cold, wet, or windy it might be!

Date:

Astronomy

Jul. 26, 2013 Rise Set
Actual Time 6:10 AM CST 7:50 PM CST
Civil Twilight 5:44 AM CST 8:16 PM CST
Nautical Twilight 5:12 AM CST 8:48 PM CST
Astronomical Twilight 4:39 AM CST 9:20 PM CST
Moon 10:11 PM CST (7/26) 9:47 AM CST (7/26)
Length of Visible Light 14h 32m
Length of Day
13h 40m
Waning Gibbous, 84% of the Moon is Illuminated
Jul 26
Waning Gibbous
Jul 30
Last Quarter
Aug 7
New
Aug 14
First Quarter
Aug 21
Full

Hourly Weather History & Observations

Time (CST) Temp. Heat Index Dew Point Humidity Pressure Visibility Wind Dir Wind Speed Gust Speed Precip Events Conditions
12:00 AM 93.2 °F 94.9 °F 64.4 °F 38% 29.53 in - ESE 4.5 mph - N/A   Clear
1:00 AM 91.4 °F 93.2 °F 64.4 °F 41% 29.53 in - ESE 6.7 mph - N/A   Clear
2:00 AM 91.4 °F 93.2 °F 64.4 °F 41% 29.53 in - SSE 6.7 mph - N/A   Clear
3:00 AM 87.8 °F 90.4 °F 66.2 °F 49% 29.56 in - South 2.2 mph - N/A   Clear
4:00 AM 86.0 °F 91.8 °F 71.6 °F 62% 29.56 in - South 2.2 mph - N/A   Clear
5:00 AM 86 °F - 74 °F 60% 29.44 in 5 mi North 2.2 mph - -   Haze
5:00 AM 87.8 °F 91.4 °F 68.0 °F 52% 29.56 in - Variable 2.2 mph - N/A   Clear
6:00 AM 86.0 °F 90.4 °F 69.8 °F 58% 29.56 in - Variable 2.2 mph - N/A   Clear
7:00 AM 87.8 °F 91.4 °F 68.0 °F 52% 29.56 in - East 4.5 mph - N/A   Clear
8:00 AM 87 °F - 74 °F 59% 29.50 in 5 mi NNW 2.2 mph - -   Haze
8:00 AM 89.6 °F 93.4 °F 68.0 °F 49% 29.56 in - SE 4.5 mph - N/A   Clear
9:00 AM 91.4 °F 95.4 °F 68.0 °F 46% 29.56 in - SSE 6.7 mph - N/A   Clear
10:00 AM 93.2 °F 96.2 °F 66.2 °F 41% 29.56 in - SE 8.9 mph - N/A   Clear
11:00 AM 97 °F - 67 °F 28% 29.49 in 12 mi East 2.2 mph - -   Clear
11:00 AM 96.8 °F 100.7 °F 66.2 °F 37% 29.56 in - SSE 6.7 mph - N/A   Clear
12:00 PM 98.6 °F 102.8 °F 66.2 °F 35% 29.53 in 6.2 mi Variable 6.7 mph - N/A   Partly Cloudy
1:00 PM 98.6 °F 102.8 °F 66.2 °F 35% 29.53 in 6.2 mi Variable 6.7 mph - N/A   Partly Cloudy
2:00 PM 103 °F - 66 °F 21% 29.43 in 19 mi South 4.5 mph - -   Mostly Cloudy
2:00 PM 100.4 °F 103.6 °F 64.4 °F 31% 29.53 in 6.2 mi Variable 4.5 mph - N/A   Mostly Cloudy
3:00 PM 100.4 °F 103.6 °F 64.4 °F 31% 29.50 in 6.2 mi NE 6.7 mph - N/A   Scattered Clouds
4:00 PM 100.4 °F 104.9 °F 66.2 °F 33% 29.50 in 6.2 mi Variable 4.5 mph - N/A   Partly Cloudy
5:00 PM 103 °F - 66 °F 21% 29.38 in 12 mi ESE 6.7 mph - -   Mostly Cloudy
5:00 PM 100.4 °F 103.6 °F 64.4 °F 31% 29.50 in 6.2 mi Variable 4.5 mph - N/A   Partly Cloudy
6:00 PM 100.4 °F 104.9 °F 66.2 °F 33% 29.47 in - ENE 8.9 mph - N/A   Clear
7:00 PM 98.6 °F 104.1 °F 68.0 °F 37% 29.47 in - ENE 6.7 mph - N/A   Clear
8:00 PM 98 °F - 66 °F 25% 29.41 in 12 mi NNW 2.2 mph - -   Clear
8:00 PM 95.0 °F 103.2 °F 71.6 °F 47% 29.50 in - NNE 8.9 mph - N/A   Clear
9:00 PM 93.2 °F 100.5 °F 71.6 °F 49% 29.53 in - NNE 8.9 mph - N/A   Clear
10:00 PM 91.4 °F 98.4 °F 71.6 °F 52% 29.53 in - Variable 2.2 mph - N/A   Clear
11:00 PM 92 °F - 72 °F 42% 29.49 in 9 mi NNW 4.5 mph - -   Clear
11:00 PM 89.6 °F 96.2 °F 71.6 °F 55% 29.56 in - NE 6.7 mph - N/A   Clear